Year,Month,Day,Hour,Minute,Value (Times are PST for temperature in C)
2011,08,24,09,10,16.90
2011,08,24,09,11,16.90
2011,08,24,09,12,17.00
2011,08,24,09,13,17.00
2011,08,24,09,14,17.10
2011,08,24,09,15,17.10
2011,08,24,09,16,17.20
2011,08,24,09,17,17.20
2011,08,24,09,18,17.20
2011,08,24,09,19,17.20
2011,08,24,09,20,17.30
2011,08,24,09,21,17.30
2011,08,24,09,22,17.30
2011,08,24,09,23,17.40
2011,08,24,09,24,17.40
2011,08,24,09,25,17.40
2011,08,24,09,26,17.40
2011,08,24,09,27,17.40
2011,08,24,09,28,17.50
2011,08,24,09,29,17.60
2011,08,24,09,30,17.70
2011,08,24,09,31,17.70
2011,08,24,09,32,17.80
2011,08,24,09,33,17.90
2011,08,24,09,34,17.90
2011,08,24,09,35,18.00
2011,08,24,09,36,18.00
2011,08,24,09,37,18.00
2011,08,24,09,38,18.10
2011,08,24,09,39,18.10
2011,08,24,09,40,18.10
2011,08,24,09,41,18.20
2011,08,24,09,42,18.30
2011,08,24,09,43,18.30
2011,08,24,09,44,18.30
2011,08,24,09,45,18.30
2011,08,24,09,46,18.30
2011,08,24,09,47,18.40
2011,08,24,09,48,18.50
2011,08,24,09,49,18.60
2011,08,24,09,50,18.60
2011,08,24,09,51,18.70
2011,08,24,09,52,18.70
2011,08,24,09,53,18.70
2011,08,24,09,54,18.80
2011,08,24,09,55,18.80
2011,08,24,09,56,18.90
2011,08,24,09,57,18.90
2011,08,24,09,58,18.80
2011,08,24,09,59,18.80
2011,08,24,10,00,18.90
2011,08,24,10,01,18.90
2011,08,24,10,02,18.90
2011,08,24,10,03,18.90
2011,08,24,10,04,18.80
2011,08,24,10,05,18.80
2011,08,24,10,06,18.80
2011,08,24,10,07,18.80
2011,08,24,10,08,18.80
2011,08,24,10,09,18.80
2011,08,24,10,10,18.80
2011,08,24,10,11,18.80
2011,08,24,10,12,18.80
2011,08,24,10,13,18.80
2011,08,24,10,14,18.90
2011,08,24,10,15,18.90
2011,08,24,10,16,19.00
2011,08,24,10,17,19.10
2011,08,24,10,18,19.10
2011,08,24,10,19,19.00
2011,08,24,10,20,19.00
2011,08,24,10,21,19.00
2011,08,24,10,22,19.00
2011,08,24,10,23,19.00
2011,08,24,10,24,19.00
2011,08,24,10,25,18.90
2011,08,24,10,26,19.00
2011,08,24,10,27,19.00
2011,08,24,10,28,19.10
2011,08,24,10,29,19.10
2011,08,24,10,30,19.20
2011,08,24,10,31,19.20
2011,08,24,10,32,19.20
2011,08,24,10,33,19.30
2011,08,24,10,34,19.30
2011,08,24,10,35,19.30
2011,08,24,10,36,19.40
2011,08,24,10,37,19.40
2011,08,24,10,38,19.40
2011,08,24,10,39,19.30
2011,08,24,10,40,19.20
2011,08,24,10,41,19.10
2011,08,24,10,42,19.00
2011,08,24,10,43,18.90
2011,08,24,10,44,18.80
2011,08,24,10,45,18.80
2011,08,24,10,46,18.80
2011,08,24,10,47,18.80
2011,08,24,10,48,18.80
2011,08,24,10,49,18.80
2011,08,24,10,50,18.90
2011,08,24,10,51,19.00
2011,08,24,10,52,19.10
2011,08,24,10,53,19.20
2011,08,24,10,54,19.30
2011,08,24,10,55,19.30
2011,08,24,10,56,19.30
2011,08,24,10,57,19.20
2011,08,24,10,58,19.20
2011,08,24,10,59,19.20
2011,08,24,11,00,19.10
2011,08,24,11,01,19.10
2011,08,24,11,02,19.10
2011,08,24,11,03,19.10
2011,08,24,11,04,19.10
2011,08,24,11,05,19.10
2011,08,24,11,06,19.10
2011,08,24,11,07,19.00
2011,08,24,11,08,19.00
2011,08,24,11,09,19.00
2011,08,24,11,10,19.00
2011,08,24,11,11,19.00
2011,08,24,11,12,18.90
2011,08,24,11,13,18.90
2011,08,24,11,14,18.80
2011,08,24,11,15,18.80
2011,08,24,11,16,18.80
2011,08,24,11,17,18.80
2011,08,24,11,18,18.80
2011,08,24,11,19,18.90
2011,08,24,11,20,19.00
2011,08,24,11,21,19.00
2011,08,24,11,22,19.00
2011,08,24,11,23,19.00
2011,08,24,11,24,19.10
2011,08,24,11,25,19.10
2011,08,24,11,26,19.10
2011,08,24,11,27,19.00
2011,08,24,11,28,19.00
2011,08,24,11,29,19.00
2011,08,24,11,30,18.90
2011,08,24,11,31,18.90
2011,08,24,11,32,18.90
2011,08,24,11,33,18.90
2011,08,24,11,34,19.00
2011,08,24,11,35,19.10
2011,08,24,11,36,19.10
2011,08,24,11,37,19.10
2011,08,24,11,38,19.10
2011,08,24,11,39,19.10
2011,08,24,11,40,19.00
2011,08,24,11,41,18.90
2011,08,24,11,42,18.90
2011,08,24,11,43,19.00
2011,08,24,11,44,18.90
2011,08,24,11,45,18.90
2011,08,24,11,46,18.90
2011,08,24,11,47,18.90
2011,08,24,11,48,18.80
2011,08,24,11,49,18.80
2011,08,24,11,50,18.80
2011,08,24,11,51,18.80
2011,08,24,11,52,18.90
2011,08,24,11,53,18.90
2011,08,24,11,54,18.90
2011,08,24,11,55,18.90
2011,08,24,11,56,18.90
2011,08,24,11,57,18.90
2011,08,24,11,58,18.90
2011,08,24,11,59,18.90
2011,08,24,12,00,18.80
2011,08,24,12,01,18.70
2011,08,24,12,02,18.70
2011,08,24,12,03,18.60
2011,08,24,12,04,18.60
2011,08,24,12,05,18.50
2011,08,24,12,06,18.40
2011,08,24,12,07,18.40
2011,08,24,12,08,18.30
2011,08,24,12,09,18.20
2011,08,24,12,10,18.20
2011,08,24,12,11,18.10
2011,08,24,12,12,18.10
2011,08,24,12,13,18.10
2011,08,24,12,14,18.20
2011,08,24,12,15,18.20
2011,08,24,12,16,18.20
2011,08,24,12,17,18.20
2011,08,24,12,18,18.20
2011,08,24,12,19,18.20
2011,08,24,12,20,18.20
2011,08,24,12,21,18.30
2011,08,24,12,22,18.40
2011,08,24,12,23,18.40
2011,08,24,12,24,18.30
2011,08,24,12,25,18.30
2011,08,24,12,26,18.40
2011,08,24,12,27,18.50
2011,08,24,12,28,18.50
2011,08,24,12,29,18.60
2011,08,24,12,30,18.70
2011,08,24,12,31,18.60
2011,08,24,12,32,18.60
2011,08,24,12,33,18.60
2011,08,24,12,34,18.70
2011,08,24,12,35,18.70
2011,08,24,12,36,18.80
2011,08,24,12,37,18.70
2011,08,24,12,38,18.80
2011,08,24,12,39,18.80
2011,08,24,12,40,18.80
2011,08,24,12,41,18.80
2011,08,24,12,42,18.80
2011,08,24,12,43,18.80
2011,08,24,12,44,18.90
2011,08,24,12,45,18.90
2011,08,24,12,46,19.00
2011,08,24,12,47,19.10
2011,08,24,12,48,19.10
2011,08,24,12,49,19.10
2011,08,24,12,50,19.10
2011,08,24,12,51,19.20
2011,08,24,12,52,19.20
2011,08,24,12,53,19.40
2011,08,24,12,54,19.50
2011,08,24,12,55,19.60
2011,08,24,12,56,19.50
2011,08,24,12,57,19.40
2011,08,24,12,58,19.40
2011,08,24,12,59,19.40
2011,08,24,13,00,19.40
2011,08,24,13,01,19.40
2011,08,24,13,02,19.40
2011,08,24,13,03,19.50
2011,08,24,13,04,19.50
2011,08,24,13,05,19.60
2011,08,24,13,06,19.60
2011,08,24,13,07,19.70
2011,08,24,13,08,19.70
2011,08,24,13,09,19.70
2011,08,24,13,10,19.70
2011,08,24,13,11,19.70
2011,08,24,13,12,19.80
2011,08,24,13,13,19.80
2011,08,24,13,14,19.80
2011,08,24,13,15,19.80
2011,08,24,13,16,19.90
2011,08,24,13,17,20.00
2011,08,24,13,18,20.10
2011,08,24,13,19,20.10
2011,08,24,13,20,20.10
2011,08,24,13,21,20.10
2011,08,24,13,22,20.10
2011,08,24,13,23,20.20
2011,08,24,13,24,20.30
2011,08,24,13,25,20.40
2011,08,24,13,26,20.50
2011,08,24,13,27,20.50
2011,08,24,13,28,20.50
2011,08,24,13,29,20.50
2011,08,24,13,30,20.70
2011,08,24,13,31,20.80
2011,08,24,13,32,21.00
2011,08,24,13,33,21.00
2011,08,24,13,34,20.80
2011,08,24,13,35,20.70
2011,08,24,13,36,20.60
2011,08,24,13,37,20.50
2011,08,24,13,38,20.50
2011,08,24,13,39,20.40
2011,08,24,13,40,20.40
2011,08,24,13,41,20.30
2011,08,24,13,42,20.30
2011,08,24,13,43,20.30
2011,08,24,13,44,20.20
2011,08,24,13,45,20.30
2011,08,24,13,46,20.30
2011,08,24,13,47,20.40
2011,08,24,13,48,20.40
2011,08,24,13,49,20.50
2011,08,24,13,50,20.40
2011,08,24,13,51,20.30
2011,08,24,13,52,20.30
2011,08,24,13,53,20.20
2011,08,24,13,54,20.20
2011,08,24,13,55,20.20
2011,08,24,13,56,20.20
2011,08,24,13,57,20.20
2011,08,24,13,58,20.20
2011,08,24,13,59,20.20
2011,08,24,14,00,20.20
2011,08,24,14,01,20.10
2011,08,24,14,02,20.10
2011,08,24,14,03,20.20
2011,08,24,14,04,20.30
2011,08,24,14,05,20.40
2011,08,24,14,06,20.50
2011,08,24,14,07,20.60
2011,08,24,14,08,20.70
2011,08,24,14,09,20.70
2011,08,24,14,10,20.70
2011,08,24,14,11,20.70
2011,08,24,14,12,20.60
2011,08,24,14,13,20.50
2011,08,24,14,14,20.40
2011,08,24,14,15,20.30
2011,08,24,14,16,20.40
2011,08,24,14,17,20.50
2011,08,24,14,18,20.50
2011,08,24,14,19,20.60
2011,08,24,14,20,20.60
2011,08,24,14,21,20.60
2011,08,24,14,22,20.70
2011,08,24,14,23,20.70
2011,08,24,14,24,20.70
2011,08,24,14,25,20.60
2011,08,24,14,26,20.60
2011,08,24,14,27,20.60
2011,08,24,14,28,20.60
2011,08,24,14,29,20.50
2011,08,24,14,30,20.40
2011,08,24,14,31,20.30
2011,08,24,14,32,20.20
2011,08,24,14,33,20.20
2011,08,24,14,34,20.20
2011,08,24,14,35,20.10
2011,08,24,14,36,20.10
2011,08,24,14,37,20.10
2011,08,24,14,38,20.10
2011,08,24,14,39,20.00
2011,08,24,14,40,20.00
2011,08,24,14,41,20.00
2011,08,24,14,42,20.10
2011,08,24,14,43,20.10
2011,08,24,14,44,20.00
2011,08,24,14,45,20.10
2011,08,24,14,46,20.10
2011,08,24,14,47,20.10
2011,08,24,14,48,20.20
2011,08,24,14,49,20.30
2011,08,24,14,50,20.40
2011,08,24,14,51,20.40
2011,08,24,14,52,20.40
2011,08,24,14,53,20.40
2011,08,24,14,54,20.40
2011,08,24,14,55,20.30
2011,08,24,14,56,20.10
2011,08,24,14,57,20.00
2011,08,24,14,58,19.80
2011,08,24,14,59,19.70
2011,08,24,15,00,19.60
2011,08,24,15,01,19.70
2011,08,24,15,02,19.70
2011,08,24,15,03,19.70
2011,08,24,15,04,19.70
2011,08,24,15,05,19.60
2011,08,24,15,06,19.60
2011,08,24,15,07,19.70
2011,08,24,15,08,19.80
2011,08,24,15,09,19.90
2011,08,24,15,10,20.00
2011,08,24,15,11,20.10
2011,08,24,15,12,20.20
2011,08,24,15,13,20.10
2011,08,24,15,14,20.00
2011,08,24,15,15,20.00
2011,08,24,15,16,19.80
2011,08,24,15,17,19.70
2011,08,24,15,18,19.70
2011,08,24,15,19,19.60
2011,08,24,15,20,19.50
2011,08,24,15,21,19.40
2011,08,24,15,22,19.30
2011,08,24,15,23,19.30
2011,08,24,15,24,19.30
2011,08,24,15,25,19.30
2011,08,24,15,26,19.40
2011,08,24,15,27,19.50
2011,08,24,15,28,19.60
2011,08,24,15,29,19.70
2011,08,24,15,30,19.80
2011,08,24,15,31,19.80
2011,08,24,15,32,19.80
2011,08,24,15,33,19.80
2011,08,24,15,34,19.80
2011,08,24,15,35,19.80
2011,08,24,15,36,19.70
2011,08,24,15,37,19.70
2011,08,24,15,38,19.70
2011,08,24,15,39,19.80
2011,08,24,15,40,19.80
2011,08,24,15,41,19.80
2011,08,24,15,42,19.80
2011,08,24,15,43,19.90
2011,08,24,15,44,20.00
2011,08,24,15,45,20.00
2011,08,24,15,46,20.20
2011,08,24,15,47,20.30
2011,08,24,15,48,20.40
2011,08,24,15,49,20.50
2011,08,24,15,50,20.60
2011,08,24,15,51,20.60
2011,08,24,15,52,20.70
2011,08,24,15,53,20.70
2011,08,24,15,54,20.60
2011,08,24,15,55,20.70
2011,08,24,15,56,20.70
2011,08,24,15,57,20.70
2011,08,24,15,58,20.80
2011,08,24,15,59,20.80
2011,08,24,16,00,20.70
2011,08,24,16,01,20.70
2011,08,24,16,02,20.70
2011,08,24,16,03,20.70
2011,08,24,16,04,20.70
2011,08,24,16,05,20.70
2011,08,24,16,06,20.70
2011,08,24,16,07,20.70
2011,08,24,16,08,20.70
2011,08,24,16,09,20.80
2011,08,24,16,10,20.80
2011,08,24,16,11,20.90
2011,08,24,16,12,21.00
2011,08,24,16,13,21.00
2011,08,24,16,14,21.10
2011,08,24,16,15,21.10
2011,08,24,16,16,21.20
2011,08,24,16,17,21.30
2011,08,24,16,18,21.40
2011,08,24,16,19,21.50
2011,08,24,16,20,21.60
2011,08,24,16,21,21.60
2011,08,24,16,22,21.70
2011,08,24,16,23,21.80
2011,08,24,16,24,21.90
2011,08,24,16,25,22.00
2011,08,24,16,26,22.00
2011,08,24,16,27,22.10
2011,08,24,16,28,22.10
2011,08,24,16,29,22.10
2011,08,24,16,30,22.10
2011,08,24,16,31,22.10
2011,08,24,16,32,22.20
2011,08,24,16,33,22.30
2011,08,24,16,34,22.40
2011,08,24,16,35,22.40
2011,08,24,16,36,22.50
2011,08,24,16,37,22.50
2011,08,24,16,38,22.50
2011,08,24,16,39,22.50
2011,08,24,16,40,22.40
2011,08,24,16,41,22.40
2011,08,24,16,42,22.40
2011,08,24,16,43,22.40
2011,08,24,16,44,22.40
2011,08,24,16,45,22.30
2011,08,24,16,46,22.30
2011,08,24,16,47,22.20
2011,08,24,16,48,22.10
2011,08,24,16,49,22.10
2011,08,24,16,50,22.10
2011,08,24,16,51,22.10
2011,08,24,16,52,22.10
2011,08,24,16,53,22.10
2011,08,24,16,54,22.00
2011,08,24,16,55,22.10
2011,08,24,16,56,22.10
2011,08,24,16,57,22.10
2011,08,24,16,58,22.10
2011,08,24,16,59,22.20
2011,08,24,17,00,22.20
2011,08,24,17,01,22.20
2011,08,24,17,02,22.10
2011,08,24,17,03,22.00
2011,08,24,17,04,21.90
2011,08,24,17,05,21.90
2011,08,24,17,06,21.80
2011,08,24,17,07,21.80
2011,08,24,17,08,21.70
2011,08,24,17,09,21.70
2011,08,24,17,10,21.70
2011,08,24,17,11,21.70
2011,08,24,17,12,21.60
2011,08,24,17,13,21.50
2011,08,24,17,14,21.40
2011,08,24,17,15,21.40
2011,08,24,17,16,21.30
2011,08,24,17,17,21.20
2011,08,24,17,18,21.20
2011,08,24,17,19,21.00
2011,08,24,17,20,20.90
2011,08,24,17,21,20.80
2011,08,24,17,22,20.70
2011,08,24,17,23,20.60
2011,08,24,17,24,20.50
2011,08,24,17,25,20.40
2011,08,24,17,26,20.30
2011,08,24,17,27,20.30
2011,08,24,17,28,20.20
2011,08,24,17,29,20.20
2011,08,24,17,30,20.20
2011,08,24,17,31,20.20
2011,08,24,17,32,20.30
2011,08,24,17,33,20.30
2011,08,24,17,34,20.30
2011,08,24,17,35,20.40
2011,08,24,17,36,20.40
2011,08,24,17,37,20.50
2011,08,24,17,38,20.50
2011,08,24,17,39,20.60
2011,08,24,17,40,20.60
2011,08,24,17,41,20.70
2011,08,24,17,42,20.70
2011,08,24,17,43,20.70
2011,08,24,17,44,20.70
2011,08,24,17,45,20.70
2011,08,24,17,46,20.70
2011,08,24,17,47,20.70
2011,08,24,17,48,20.60
2011,08,24,17,49,20.50
2011,08,24,17,50,20.40
2011,08,24,17,51,20.40
2011,08,24,17,52,20.30
2011,08,24,17,53,20.20
2011,08,24,17,54,20.10
2011,08,24,17,55,20.10
2011,08,24,17,56,20.00
2011,08,24,17,57,20.00
2011,08,24,17,58,19.90
2011,08,24,17,59,19.90
2011,08,24,18,00,19.90
2011,08,24,18,01,19.80
2011,08,24,18,02,19.90
2011,08,24,18,03,19.90
2011,08,24,18,04,19.90
2011,08,24,18,05,19.90
2011,08,24,18,06,19.90
2011,08,24,18,07,20.00
2011,08,24,18,08,20.00
2011,08,24,18,09,20.00
2011,08,24,18,10,20.00
2011,08,24,18,11,20.00
2011,08,24,18,12,20.10
2011,08,24,18,13,20.10
2011,08,24,18,14,20.10
2011,08,24,18,15,20.10
2011,08,24,18,16,20.10
2011,08,24,18,17,20.10
2011,08,24,18,18,20.10
2011,08,24,18,19,20.10
2011,08,24,18,20,20.10
2011,08,24,18,21,20.20
2011,08,24,18,22,20.20
2011,08,24,18,23,20.20
2011,08,24,18,24,20.20
2011,08,24,18,25,20.20
2011,08,24,18,26,20.30
2011,08,24,18,27,20.30
2011,08,24,18,28,20.30
2011,08,24,18,29,20.30
2011,08,24,18,30,20.40
2011,08,24,18,31,20.40
2011,08,24,18,32,20.50
2011,08,24,18,33,20.50
2011,08,24,18,34,20.60
2011,08,24,18,35,20.60
2011,08,24,18,36,20.60
2011,08,24,18,37,20.60
2011,08,24,18,38,20.60
2011,08,24,18,39,20.60
2011,08,24,18,40,20.60
2011,08,24,18,41,20.60
2011,08,24,18,42,20.60
2011,08,24,18,43,20.70
2011,08,24,18,44,20.70
2011,08,24,18,45,20.70
2011,08,24,18,46,20.70
2011,08,24,18,47,20.70
2011,08,24,18,48,20.70
2011,08,24,18,49,20.60
2011,08,24,18,50,20.60
2011,08,24,18,51,20.60
2011,08,24,18,52,20.60
2011,08,24,18,53,20.60
2011,08,24,18,54,20.50
2011,08,24,18,55,20.40
2011,08,24,18,56,20.40
2011,08,24,18,57,20.30
2011,08,24,18,58,20.30
2011,08,24,18,59,20.30
2011,08,24,19,00,20.30
2011,08,24,19,01,20.30
2011,08,24,19,02,20.30
2011,08,24,19,03,20.20
2011,08,24,19,04,20.20
2011,08,24,19,05,20.20
2011,08,24,19,06,20.20
2011,08,24,19,07,20.20
2011,08,24,19,08,20.10
2011,08,24,19,09,20.10
2011,08,24,19,10,20.10
2011,08,24,19,11,20.10
2011,08,24,19,12,20.10
2011,08,24,19,13,20.10
2011,08,24,19,14,20.10
2011,08,24,19,15,20.10
2011,08,24,19,16,20.10
2011,08,24,19,17,20.10
2011,08,24,19,18,20.10
2011,08,24,19,19,20.10
2011,08,24,19,20,20.10
2011,08,24,19,21,20.10
2011,08,24,19,22,20.10
2011,08,24,19,23,20.10
2011,08,24,19,24,20.10
2011,08,24,19,25,20.10
2011,08,24,19,26,20.10
2011,08,24,19,27,20.00
2011,08,24,19,28,20.00
2011,08,24,19,29,20.00
2011,08,24,19,30,20.00
2011,08,24,19,31,20.00
2011,08,24,19,32,20.00
2011,08,24,19,33,20.00
2011,08,24,19,34,20.00
2011,08,24,19,35,19.90
2011,08,24,19,36,19.90
2011,08,24,19,37,19.90
2011,08,24,19,38,19.90
2011,08,24,19,39,19.90
2011,08,24,19,40,19.80
2011,08,24,19,41,19.80
2011,08,24,19,42,19.80
2011,08,24,19,43,19.80
2011,08,24,19,44,19.80
2011,08,24,19,45,19.80
2011,08,24,19,46,19.70
2011,08,24,19,47,19.70
2011,08,24,19,48,19.70
2011,08,24,19,49,19.70
2011,08,24,19,50,19.70
2011,08,24,19,51,19.70
2011,08,24,19,52,19.70
2011,08,24,19,53,19.60
2011,08,24,19,54,19.60
2011,08,24,19,55,19.60
2011,08,24,19,56,19.60
2011,08,24,19,57,19.50
2011,08,24,19,58,19.50
2011,08,24,19,59,19.40
2011,08,24,20,00,19.40
2011,08,24,20,01,19.40
2011,08,24,20,02,19.40
2011,08,24,20,03,19.30
2011,08,24,20,04,19.30
2011,08,24,20,05,19.30
2011,08,24,20,06,19.30
2011,08,24,20,07,19.30
2011,08,24,20,08,19.30
2011,08,24,20,09,19.30
2011,08,24,20,10,19.30
2011,08,24,20,11,19.30
2011,08,24,20,12,19.30
2011,08,24,20,13,19.30
